When you browse on this site, cookies collect data to enhance your experience and personalize the content and advertising you see.
Visit our Privacy Policy to learn more. By continuing to use the site, you agree to this use of cookies and data.
  • In Lithuania
  • List of Countries
  • For 7 days
  • Water Temperature
  • Satellite Maps
  • Weather Map
  • Weather Widgets
  • user-avatar
    Login

    Hourly Weather Lugovka

    Today, 20 May, Monday

    Time Temperature Precipitation Wind Pressure Humidity
    00:00 +12°C° 0 mm 3 mps 748 mmHg 79%
    01:00 +12°C° 0 mm 2 mps 748 mmHg 78%
    02:00 +12°C° 0 mm 2 mps 748 mmHg 77%
    03:00 +10°C° 0 mm 2 mps 749 mmHg 75%
    04:00 +11°C° 0 mm 1 mps 749 mmHg 75%
    05:00 +11°C° 0 mm 1 mps 749 mmHg 75%
    06:00 +11°C° 0 mm 1 mps 749 mmHg 75%
    07:00 +13°C° 0 mm 1 mps 750 mmHg 69%
    08:00 +14°C° 0 mm 1 mps 750 mmHg 62%
    09:00 +16°C° 0 mm 2 mps 750 mmHg 56%
    10:00 +17°C° 0 mm 2 mps 750 mmHg 55%
    11:00 +18°C° 0 mm 2 mps 750 mmHg 53%
    12:00 +19°C° 0 mm 2 mps 750 mmHg 52%
    13:00 +19°C° 0 mm 2 mps 750 mmHg 51%
    14:00 +20°C° 0 mm 2 mps 750 mmHg 51%
    15:00 +21°C° 0 mm 2 mps 750 mmHg 51%
    16:00 +20°C° 0 mm 2 mps 749 mmHg 53%
    17:00 +20°C° 0 mm 2 mps 749 mmHg 56%
    18:00 +20°C° 0 mm 2 mps 749 mmHg 59%
    19:00 +18°C° 0 mm 2 mps 749 mmHg 63%
    20:00 +17°C° 0 mm 2 mps 749 mmHg 68%
    21:00 +15°C° 0 mm 2 mps 749 mmHg 73%
    22:00 +14°C° 0 mm 2 mps 749 mmHg 75%
    23:00 +14°C° 0 mm 2 mps 750 mmHg 77%

    Tomorrow, 21 May, Tuesday

    Time Temperature Precipitation Wind Pressure Humidity
    00:00 +13°C° 0 mm 2 mps 750 mmHg 79%
    01:00 +13°C° 0 mm 2 mps 750 mmHg 80%
    02:00 +12°C° 0 mm 2 mps 750 mmHg 82%
    03:00 +12°C° 0 mm 2 mps 750 mmHg 83%
    04:00 +12°C° 0 mm 2 mps 750 mmHg 83%
    05:00 +13°C° 0 mm 2 mps 750 mmHg 83%
    06:00 +13°C° 0 mm 2 mps 751 mmHg 84%
    07:00 +15°C° 0 mm 2 mps 751 mmHg 78%
    08:00 +16°C° 0 mm 2 mps 751 mmHg 72%
    09:00 +18°C° 0 mm 2 mps 751 mmHg 66%
    10:00 +19°C° 0 mm 2 mps 751 mmHg 62%
    11:00 +20°C° 0 mm 2 mps 750 mmHg 58%
    12:00 +21°C° 0 mm 3 mps 750 mmHg 54%
    13:00 +21°C° 0 mm 3 mps 750 mmHg 53%
    14:00 +21°C° 0 mm 3 mps 750 mmHg 52%
    15:00 +22°C° 0 mm 4 mps 749 mmHg 51%
    16:00 +21°C° 0 mm 3 mps 749 mmHg 54%
    17:00 +21°C° 0 mm 3 mps 748 mmHg 58%
    18:00 +20°C° 0 mm 3 mps 748 mmHg 62%
    19:00 +19°C° 0 mm 3 mps 748 mmHg 65%
    20:00 +17°C° 0 mm 2 mps 748 mmHg 68%
    21:00 +15°C° 0 mm 2 mps 748 mmHg 71%
    22:00 +15°C° 0 mm 2 mps 748 mmHg 74%
    23:00 +14°C° 0 mm 2 mps 747 mmHg 77%

    Day after tomorrow, 22 May, Wednesday

    Time Temperature Precipitation Wind Pressure Humidity
    00:00 +13°C° 0 mm 3 mps 747 mmHg 79%
    01:00 +12°C° 0 mm 3 mps 747 mmHg 81%
    02:00 +12°C° 0 mm 3 mps 747 mmHg 83%
    03:00 +12°C° 0 mm 3 mps 747 mmHg 85%
    04:00 +12°C° 0 mm 3 mps 746 mmHg 84%
    05:00 +12°C° 0 mm 3 mps 746 mmHg 84%
    06:00 +12°C° 0 mm 3 mps 746 mmHg 84%
    07:00 +14°C° 0 mm 3 mps 746 mmHg 79%
    08:00 +17°C° 0 mm 3 mps 746 mmHg 75%
    09:00 +19°C° 0 mm 3 mps 745 mmHg 70%
    10:00 +20°C° 0 mm 3 mps 745 mmHg 66%
    11:00 +21°C° 0 mm 4 mps 745 mmHg 62%
    12:00 +22°C° 0 mm 4 mps 745 mmHg 58%
    13:00 +22°C° 0 mm 4 mps 744 mmHg 58%
    14:00 +22°C° 0 mm 5 mps 744 mmHg 57%
    15:00 +22°C° 0 mm 5 mps 744 mmHg 57%
    16:00 +22°C° 0 mm 4 mps 743 mmHg 59%
    17:00 +22°C° 0 mm 4 mps 743 mmHg 62%
    18:00 +22°C° 0 mm 3 mps 743 mmHg 65%
    19:00 +20°C° 0 mm 3 mps 742 mmHg 69%
    20:00 +18°C° 0 mm 3 mps 742 mmHg 72%
    21:00 +17°C° 0 mm 3 mps 742 mmHg 76%
    22:00 +16°C° 0 mm 3 mps 742 mmHg 78%
    23:00 +16°C° 0 mm 3 mps 742 mmHg 80%

    23 May, Thursday

    Time Temperature Precipitation Wind Pressure Humidity
    00:00 +14°C° 0 mm 3 mps 742 mmHg 82%
    01:00 +14°C° 0 mm 3 mps 742 mmHg 82%
    02:00 +13°C° 0 mm 3 mps 741 mmHg 82%
    03:00 +13°C° 0 mm 3 mps 741 mmHg 82%
    04:00 +13°C° 0 mm 3 mps 741 mmHg 82%
    05:00 +13°C° 0 mm 3 mps 741 mmHg 82%
    06:00 +13°C° 0 mm 3 mps 741 mmHg 83%
    07:00 +16°C° 0 mm 3 mps 740 mmHg 80%
    08:00 +18°C° 0 mm 3 mps 740 mmHg 77%
    09:00 +19°C° 0 mm 4 mps 740 mmHg 74%
    10:00 +21°C° 0.1 mm 4 mps 740 mmHg 71%
    11:00 +22°C° 0.1 mm 4 mps 740 mmHg 68%
    12:00 +23°C° 0.1 mm 4 mps 740 mmHg 64%
    13:00 +23°C° 0.5 mm 4 mps 739 mmHg 64%
    14:00 +25°C° 0.5 mm 4 mps 739 mmHg 64%
    15:00 +25°C° 0.5 mm 4 mps 739 mmHg 64%
    16:00 +25°C° 0.3 mm 4 mps 739 mmHg 66%
    17:00 +23°C° 0.3 mm 4 mps 739 mmHg 69%
    18:00 +24°C° 0.3 mm 3 mps 739 mmHg 72%
    19:00 +22°C° 0.7 mm 3 mps 739 mmHg 76%
    20:00 +20°C° 0.7 mm 2 mps 739 mmHg 81%
    21:00 +19°C° 0.7 mm 2 mps 739 mmHg 85%
    22:00 +18°C° 0.7 mm 2 mps 739 mmHg 87%
    23:00 +19°C° 0.7 mm 1 mps 739 mmHg 90%

    24 May, Friday

    Time Temperature Precipitation Wind Pressure Humidity
    00:00 +18°C° 0.7 mm 1 mps 739 mmHg 92%
    01:00 +18°C° 0.1 mm 1 mps 739 mmHg 92%
    02:00 +16°C° 0.1 mm 1 mps 739 mmHg 93%
    03:00 +16°C° 0.1 mm 2 mps 739 mmHg 94%
    04:00 +16°C° 0 mm 2 mps 739 mmHg 93%
    05:00 +16°C° 0 mm 2 mps 739 mmHg 93%
    06:00 +17°C° 0 mm 2 mps 739 mmHg 93%
    07:00 +18°C° 0 mm 2 mps 739 mmHg 90%
    08:00 +18°C° 0 mm 3 mps 739 mmHg 88%
    09:00 +19°C° 0 mm 3 mps 740 mmHg 85%
    10:00 +20°C° 0 mm 3 mps 740 mmHg 80%
    11:00 +21°C° 0 mm 3 mps 740 mmHg 76%
    12:00 +22°C° 0 mm 3 mps 740 mmHg 71%
    13:00 +22°C° 0.3 mm 4 mps 739 mmHg 72%
    14:00 +22°C° 0.3 mm 4 mps 739 mmHg 73%
    15:00 +22°C° 0.3 mm 4 mps 739 mmHg 74%
    16:00 +22°C° 0.1 mm 4 mps 739 mmHg 77%
    17:00 +21°C° 0.1 mm 4 mps 739 mmHg 79%
    18:00 +21°C° 0.1 mm 4 mps 739 mmHg 82%
    19:00 +19°C° 0.5 mm 4 mps 739 mmHg 85%
    20:00 +18°C° 0.5 mm 4 mps 739 mmHg 89%
    21:00 +17°C° 0.5 mm 4 mps 739 mmHg 93%
    22:00 +17°C° 0.1 mm 4 mps 739 mmHg 94%
    23:00 +17°C° 0.1 mm 4 mps 739 mmHg 95%

    25 May, Saturday

    Time Temperature Precipitation Wind Pressure Humidity
    00:00 +16°C° 0.1 mm 3 mps 739 mmHg 96%
    01:00 +15°C° 0 mm 4 mps 739 mmHg 96%
    02:00 +15°C° 0 mm 4 mps 738 mmHg 96%
    03:00 +15°C° 0 mm 4 mps 738 mmHg 97%
    04:00 +15°C° 0 mm 4 mps 738 mmHg 96%
    05:00 +15°C° 0 mm 4 mps 738 mmHg 96%
    06:00 +15°C° 0 mm 4 mps 738 mmHg 95%
    07:00 +17°C° 0.1 mm 3 mps 739 mmHg 91%
    08:00 +19°C° 0.1 mm 3 mps 739 mmHg 87%
    09:00 +20°C° 0.1 mm 3 mps 739 mmHg 83%
    10:00 +21°C° 0.9 mm 3 mps 739 mmHg 78%
    11:00 +22°C° 0.9 mm 4 mps 739 mmHg 72%
    12:00 +25°C° 0.9 mm 4 mps 738 mmHg 67%
    13:00 +25°C° 0.7 mm 4 mps 738 mmHg 66%
    14:00 +25°C° 0.7 mm 4 mps 738 mmHg 66%
    15:00 +25°C° 0.7 mm 4 mps 738 mmHg 65%
    16:00 +25°C° 0.5 mm 4 mps 738 mmHg 68%
    17:00 +25°C° 0.5 mm 3 mps 737 mmHg 71%
    18:00 +24°C° 0.5 mm 3 mps 737 mmHg 74%
    19:00 +22°C° 1 mm 3 mps 737 mmHg 78%
    20:00 +20°C° 1 mm 3 mps 737 mmHg 82%
    21:00 +18°C° 1 mm 3 mps 737 mmHg 85%
    22:00 +18°C° 0 mm 3 mps 737 mmHg 87%
    23:00 +17°C° 0 mm 3 mps 737 mmHg 89%
    Show more